User: anonymous   Login
Location: Unspecified
(0.0000°N, 0.0000°E)
Time: 21:32:01
(UTC+02:00)
Language:

Ariane H10 - Orbit

View from above orbital plane
View from above orbital plane
View from above satellite
View from above satellite

Ground track
Ground track

The orbit data is extracted from the following two-line orbital elements,

1 21727U 91067B   16180.85293046  .00000058  00000-0  31124-3 0  9992
2 21727   4.1680 113.7436 7175439 226.2088  45.5823  2.31847561169740
Epoch (UTC): 28 June 2016 20:28:13
Eccentricity: 0.7175439
inclination: 4.1680°
perigee height: 433 km
apogee height: 35038 km
right ascension of ascending node: 113.7436°
argument of perigee: 226.2088°
revolutions per day: 2.31847561
mean anomaly at epoch: 45.5823°
orbit number at epoch: 16974

The dashed part of the orbit path shows where the satellite is in the earth's shadow,  

DLR